Location: Burgberg
(50.1428°N, 11.0671°E)
Time: 09:53:53
(UTC+00:00)

STARLINK-1049 - Pass Details

Date: 26 January 2020
Orbit: 378 x 383 km, 53.0° (Epoch: 19 February)

Event Time Altitude Azimuth Distance (km) Brightness Sun altitude
Exits shadow 03:23:31 - 88° (E) 1,818 7.2 -34.2°
Enters shadow 04:20:59 -65° 242° (WSW) 11,922 10.4 -25.0°
Maximum altitude 04:55:36 60° 153° (SSE) 427 3.1 -19.5°
